N0308 EHAM-EKCH

Flight info

Callsign N0308
Flight time N/A
Altitude 35000
Route ANDIK N873 JUIST DCT DOSUR P729 TUDLO
Aircraft C700/M-SBDGHM1RWXY/LB2

Departure

Time 2026-05-05 07:44
Airport Amsterdam Airport Schiphol (EHAM)

Arrival

Time N/A
Airport Copenhagen Kastrup Airport (EKCH)
Time Latitude Longitude Altitude Speed Heading
2026-05-05 07:19 52.29569 4.76422 -9 ft 0 kts 148°
2026-05-05 07:33 52.29576 4.76415 -9 ft 4 kts 148°
2026-05-05 07:33 52.29599 4.76392 -9 ft 4 kts 148°
2026-05-05 07:33 52.29621 4.76368 -9 ft 4 kts 147°
2026-05-05 07:33 52.29643 4.76342 -9 ft 4 kts 135°
2026-05-05 07:34 52.29658 4.76309 -9 ft 4 kts 97°
2026-05-05 07:34 52.29656 4.76284 -9 ft 1 kts 62°
2026-05-05 07:34 52.29655 4.76280 -9 ft 0 kts 62°
2026-05-05 07:37 52.29656 4.76284 -10 ft 2 kts 57°
2026-05-05 07:38 52.29683 4.76352 -10 ft 12 kts 58°
2026-05-05 07:38 52.29724 4.76460 -9 ft 15 kts 57°
2026-05-05 07:38 52.29798 4.76643 -9 ft 23 kts 58°
2026-05-05 07:38 52.29856 4.76792 -9 ft 16 kts 53°
2026-05-05 07:39 52.29931 4.76921 -6 ft 16 kts 52°
2026-05-05 07:39 52.29995 4.77079 -6 ft 18 kts 57°
2026-05-05 07:39 52.30073 4.77271 -8 ft 21 kts 56°
2026-05-05 07:39 52.30159 4.77478 -11 ft 22 kts 42°
2026-05-05 07:40 52.30203 4.77526 -10 ft 4 kts 28°
2026-05-05 07:40 52.30234 4.77545 -9 ft 5 kts 14°
2026-05-05 07:40 52.30282 4.77563 -8 ft 9 kts 12°
2026-05-05 07:40 52.30360 4.77574 -8 ft 14 kts
2026-05-05 07:41 52.30438 4.77676 -5 ft 16 kts 58°
2026-05-05 07:41 52.30449 4.77871 -5 ft 22 kts 125°
2026-05-05 07:41 52.30394 4.77973 -4 ft 10 kts 133°
2026-05-05 07:41 52.30340 4.78072 -4 ft 14 kts 130°
2026-05-05 07:42 52.30298 4.78150 -6 ft 0 kts 131°
2026-05-05 07:42 52.30296 4.78156 -6 ft 4 kts 131°
2026-05-05 07:42 52.30251 4.78240 -7 ft 14 kts 131°
2026-05-05 07:43 52.30189 4.78355 -9 ft 9 kts 131°
2026-05-05 07:43 52.30134 4.78462 -11 ft 13 kts 114°
2026-05-05 07:43 52.30161 4.78526 -11 ft 0 kts 39°
2026-05-05 07:43 52.30278 4.78691 -14 ft 67 kts 41°
2026-05-05 07:44 52.30871 4.79521 165 ft 141 kts 38°
2026-05-05 07:44 52.31491 4.80384 1825 ft 98 kts 41°
2026-05-05 07:44 52.32089 4.81267 2659 ft 132 kts 41°
2026-05-05 07:44 52.32839 4.82352 3624 ft 155 kts 40°
2026-05-05 07:45 52.33521 4.83902 4693 ft 184 kts 66°
2026-05-05 07:45 52.33800 4.86093 5879 ft 215 kts 88°
2026-05-05 07:45 52.33769 4.88809 6443 ft 263 kts 92°
2026-05-05 07:45 52.33895 4.91878 7775 ft 274 kts 75°
2026-05-05 07:46 52.34576 4.94805 9505 ft 281 kts 59°
2026-05-05 07:46 52.35711 4.97494 10957 ft 299 kts 52°
2026-05-05 07:46 52.36976 5.00384 12235 ft 321 kts 52°
2026-05-05 07:46 52.38277 5.03381 13996 ft 327 kts 53°
2026-05-05 07:47 52.39620 5.06467 15442 ft 338 kts 52°
2026-05-05 07:47 52.41064 5.09583 16865 ft 348 kts 46°
2026-05-05 07:47 52.42904 5.12215 18321 ft 355 kts 33°
2026-05-05 07:47 52.45089 5.14169 19440 ft 361 kts 20°
2026-05-05 07:48 52.47506 5.15382 20541 ft 367 kts 12°
2026-05-05 07:48 52.50000 5.16453 21581 ft 374 kts 12°
2026-05-05 07:48 52.52543 5.17565 22625 ft 381 kts 13°
2026-05-05 07:48 52.55124 5.18712 23631 ft 388 kts 13°
2026-05-05 07:49 52.57753 5.19876 24481 ft 394 kts 12°
2026-05-05 07:49 52.60418 5.21049 25333 ft 400 kts 12°
2026-05-05 07:49 52.63124 5.22244 26172 ft 405 kts 12°
2026-05-05 07:49 52.65866 5.23459 27027 ft 411 kts 12°
2026-05-05 07:50 52.68642 5.24694 27878 ft 415 kts 12°
2026-05-05 07:50 52.71382 5.26355 28649 ft 425 kts 22°
2026-05-05 07:50 52.73957 5.28859 29441 ft 434 kts 33°
2026-05-05 07:50 52.76230 5.32095 30167 ft 443 kts 44°
2026-05-05 07:51 52.78214 5.36032 30821 ft 448 kts 51°
2026-05-05 07:51 52.80134 5.40122 31465 ft 452 kts 51°
2026-05-05 07:51 52.82073 5.44252 32084 ft 456 kts 51°
2026-05-05 07:51 52.84030 5.48410 32684 ft 460 kts 51°
2026-05-05 07:52 52.86006 5.52611 33291 ft 463 kts 52°
2026-05-05 07:52 52.87974 5.56814 34106 ft 461 kts 52°
2026-05-05 07:52 52.89936 5.61012 34682 ft 461 kts 52°
2026-05-05 07:52 52.91911 5.65240 34975 ft 470 kts 52°
2026-05-05 07:53 52.93943 5.69593 34985 ft 485 kts 52°
2026-05-05 07:53 52.96039 5.74098 34996 ft 499 kts 52°
2026-05-05 07:53 52.98184 5.78715 35000 ft 510 kts 52°
2026-05-05 07:53 53.00354 5.83395 34996 ft 512 kts 52°
2026-05-05 07:54 53.04674 5.92736 34995 ft 507 kts 52°
2026-05-05 07:54 53.08953 6.02024 34991 ft 505 kts 52°
2026-05-05 07:55 53.13216 6.11308 34996 ft 503 kts 52°
2026-05-05 07:55 53.17460 6.20591 34979 ft 507 kts 52°
2026-05-05 07:56 53.21752 6.30011 34981 ft 510 kts 52°
2026-05-05 07:56 53.25995 6.39360 34973 ft 508 kts 52°
2026-05-05 07:57 53.30245 6.48757 34974 ft 506 kts 52°
2026-05-05 07:57 53.34512 6.58101 34961 ft 505 kts 49°
2026-05-05 07:58 53.39597 6.66236 34972 ft 506 kts 41°
2026-05-05 07:58 53.44804 6.74249 34970 ft 510 kts 41°
2026-05-05 07:59 53.50053 6.82362 34974 ft 515 kts 41°
2026-05-05 07:59 53.55309 6.90505 34989 ft 511 kts 41°
2026-05-05 08:00 53.60319 6.98797 34975 ft 501 kts 44°
2026-05-05 08:00 53.65280 7.07115 34975 ft 505 kts 44°
2026-05-05 08:01 53.70260 7.15528 34973 ft 508 kts 44°
2026-05-05 08:01 53.75212 7.23907 34979 ft 506 kts 44°